Temp
66 66 65 64 64 65 66 67 66 67 68 69 68 67 67 67 66 65 64 65 65 66 67 67 67 67 67 66 65 64 64 64 63 62 62 62 62 62 62 61 61 61 60 61 60 59 59 59 59 58 58 58 58 59 59 59 59 60 60 60 60 61 61 61 62 63 63 64 66
65 65 64 61 62 63 65 64 65 66 68 69 69 68 68 68 66 65 65 64 66 67 68 68 67 67 67 66 66 65 64 63 63 62 62 62 62 62 62 61 61 61 61 61 60 59 59 59 58 58 58 58 58 58 59 59 60 60 60 60 60 60 60 60 61 62 62 63 64
65 65 64 64 64 64 64 63 64 66 68 70 69 69 68 68 67 66 66 65 67 68 68 68 68 67 67 67 67 65 64 64 64 63 62 62 62 62 61 61 61 60 60 60 60 59 59 58 58 57 57 58 58 58 59 60 60 60 60 60 60 60 60 60 61 61 62 62 63
64 64 64 64 64 64 64 64 65 66 67 69 69 68 67 68 68 67 67 66 67 68 68 68 68 68 67 67 67 66 64 62 63 63 62 61 61 61 61 61 60 60 60 61 60 59 59 59 58 57 57 58 58 59 59 60 60 60 60 61 60 59 59 59 60 61 61 61 62
64 64 64 65 65 66 66 66 66 66 67 68 67 66 66 67 67 67 66 65 66 67 68 69 69 68 68 67 66 66 64 62 60 61 62 61 61 61 61 61 60 60 60 60 60 59 59 59 58 58 58 58 59 60 61 61 60 60 60 60 60 59 59 59 60 60 61 60 61
64 64 64 66 66 66 66 67 67 67 66 66 65 65 64 65 65 65 65 65 65 66 68 68 68 68 67 66 66 65 64 62 61 62 62 62 61 61 61 60 60 60 60 60 60 59 59 59 58 58 58 59 60 61 62 61 61 60 60 60 59 59 59 59 59 59 60 60 60
64 64 64 66 66 66 66 66 67 66 66 65 64 64 64 65 65 65 65 65 65 65 65 65 66 67 67 66 65 64 63 62 62 62 62 61 61 60 60 60 60 60 60 59 59 59 59 59 58 58 57 57 59 61 62 61 61 61 60 59 59 60 60 59 60 60 60 60 60
65 65 66 67 67 67 67 66 66 65 64 64 64 64 65 66 66 66 65 65 65 64 63 64 66 67 67 66 65 64 63 62 62 61 61 61 60 60 60 60 60 60 59 59 59 59 59 59 58 58 58 58 59 60 61 62 62 62 61 60 60 60 61 61 61 61 60 60 60
65 65 66 66 67 67 67 66 66 65 64 63 64 65 66 66 66 66 65 64 64 64 64 64 65 66 66 67 66 65 64 63 62 61 61 61 60 60 60 60 59 59 59 59 59 59 59 58 58 59 59 59 59 59 60 61 62 62 61 60 60 60 61 61 62 61 60 59 60
64 64 64 65 66 66 66 66 66 65 65 64 65 65 64 63 65 65 65 64 64 64 64 65 65 65 65 65 64 64 63 63 63 62 61 60 60 60 60 60 60 59 59 59 59 59 59 58 58 59 59 59 59 60 61 61 61 61 61 60 61 61 61 61 61 60 59 58 59
63 64 64 64 66 66 65 65 65 65 65 64 65 65 64 63 65 65 65 65 63 63 64 65 64 64 63 63 63 63 63 62 62 61 61 60 60 60 60 60 60 60 59 59 59 59 58 58 58 59 60 59 60 60 61 61 61 61 60 59 61 61 61 60 60 60 59 58 58
64 64 64 65 66 66 65 65 64 64 64 64 65 65 65 66 66 65 65 64 63 63 64 64 64 63 63 62 62 62 62 62 61 61 61 60 60 60 60 60 60 60 59 59 59 59 58 58 58 59 59 59 59 59 60 60 60 60 60 60 60 60 60 60 59 59 59 58 58
64 64 64 65 65 65 64 64 63 63 64 64 65 65 66 65 65 64 64 63 63 63 63 63 63 63 62 62 62 62 62 61 61 61 60 60 60 60 60 60 60 60 59 59 59 59 59 58 58 58 59 59 59 59 59 59 59 59 59 59 59 59 60 60 60 59 59 58 58
65 65 64 64 65 64 64 63 63 63 63 64 65 66 66 64 64 63 63 63 63 63 63 63 62 62 62 62 62 62 62 61 61 60 60 60 60 60 60 60 60 60 59 59 59 59 59 59 59 59 59 59 59 59 59 59 59 59 59 59 59 59 59 60 60 59 58 58 58
65 64 64 64 64 64 64 63 63 63 63 64 65 65 65 64 63 62 62 63 63 63 63 63 62 62 62 62 62 62 62 61 61 60 60 60 60 60 60 60 60 60 59 59 59 59 59 59 59 59 59 59 59 59 59 59 59 59 59 59 59 59 59 59 59 59 58 58 58
64 64 64 64 64 63 63 63 63 63 64 64 65 65 64 63 63 62 62 63 63 63 63 63 62 62 62 61 61 62 61 61 61 60 60 60 60 60 60 60 60 60 60 59 59 59 60 60 60 59 59 59 59 59 59 59 59 59 59 59 59 59 59 58 59 59 58 58 58
64 64 64 64 64 63 63 63 63 64 64 65 64 64 63 63 62 62 62 63 63 63 63 63 63 62 62 60 61 61 61 61 60 60 60 60 60 60 60 60 60 60 60 60 59 59 60 60 60 60 60 60 59 59 59 59 59 59 59 59 59 59 59 58 58 58 58 58 58
64 64 64 64 63 63 63 64 64 64 64 64 64 63 63 63 63 62 62 62 63 63 63 63 63 63 62 61 61 60 60 60 60 60 60 60 61 61 61 61 60 60 60 60 60 60 60 60 60 60 60 60 60 60 60 59 59 59 59 59 59 59 59 59 59 58 58 58 57
64 64 64 64 63 63 63 63 64 64 65 65 64 64 63 63 63 63 63 63 63 63 63 63 63 62 62 61 61 60 59 60 60 60 60 61 61 62 62 62 61 61 60 60 60 60 60 60 60 60 60 60 60 60 60 60 59 59 59 59 59 59 59 59 59 59 58 58 58
64 64 64 64 64 64 64 64 64 64 65 65 64 64 64 64 64 64 64 63 63 63 63 63 62 62 62 62 61 61 60 60 60 61 61 60 61 61 62 62 62 62 61 61 61 60 60 60 60 60 60 59 59 59 59 59 59 59 59 59 59 59 59 59 59 59 59 59 58
65 64 64 64 65 65 65 65 65 65 65 65 64 64 64 64 65 64 64 64 64 63 63 63 63 62 62 62 61 61 61 60 61 61 60 60 60 60 61 61 62 61 61 62 61 61 60 60 60 60 59 59 59 59 59 59 59 59 58 58 58 59 59 59 59 59 59 59 59
64 64 64 65 65 65 65 65 65 65 65 64 64 64 64 64 64 65 65 65 64 64 63 63 63 62 62 62 62 62 61 61 61 61 61 60 60 60 60 60 60 60 60 60 60 60 60 60 60 59 59 59 58 58 58 58 58 58 58 58 58 59 59 59 59 59 59 59 59
65 65 65 65 65 65 65 65 65 65 64 64 64 64 64 64 64 65 65 65 64 63 62 62 62 62 63 63 62 62 62 61 61 61 61 61 60 60 60 60 60 60 59 59 60 60 60 59 59 59 59 58 58 58 57 57 57 58 58 58 58 58 58 59 59 59 59 59 59
65 65 65 65 65 65 65 65 65 64 64 64 64 64 64 64 64 64 64 64 64 63 63 63 62 63 63 63 63 63 62 62 61 61 61 61 60 60 60 59 59 59 59 59 58 57 57 58 58 58 58 58 58 58 58 57 57 58 58 58 58 58 58 58 58 58 58 58 58
65 65 64 65 65 65 65 65 64 64 63 63 63 63 63 63 64 64 64 63 63 63 63 63 63 63 63 63 63 62 62 61 61 61 61 60 60 60 59 59 59 59 58 57 52 50 50 52 55 57 58 58 58 58 57 57 57 57 57 57 57 57 57 58 58 58 58 58 58
65 64 64 64 64 64 64 64 64 63 63 63 63 63 63 63 63 63 63 63 63 63 63 63 62 61 61 62 62 62 61 61 61 60 60 59 59 59 59 59 58 59 57 53 48 46 47 48 49 52 55 58 58 57 57 57 57 57 57 57 57 57 57 57 57 57 57 58 58
64 64 64 64 64 63 63 64 64 63 63 62 62 62 63 63 63 63 63 63 63 63 63 62 62 60 58 62 62 61 61 61 61 60 60 60 59 59 59 59 59 59 56 50 46 45 45 46 46 48 52 58 58 58 57 57 57 57 57 57 57 57 57 56 56 56 57 57 57
64 64 64 64 63 63 63 63 63 63 63 62 62 63 63 63 62 62 62 62 62 62 62 61 61 60 60 61 61 61 61 60 60 60 60 60 60 59 59 60 60 58 53 47 45 44 45 45 45 46 48 53 57 58 58 57 57 57 57 57 57 57 57 57 56 56 56 56 57
64 64 64 64 63 63 63 63 63 63 63 63 63 63 63 62 62 62 62 62 61 61 60 60 60 60 60 60 61 61 61 60 60 60 60 60 60 60 60 60 60 56 50 43 44 44 45 45 45 45 46 49 55 58 58 57 57 57 57 57 57 56 56 56 56 56 56 56 56
64 64 64 64 64 64 64 64 64 64 64 63 63 63 62 62 62 61 61 61 61 60 60 61 60 60 60 60 61 61 61 60 60 60 60 61 61 61 60 59 61 57 50 41 43 45 45 45 45 44 45 46 52 56 58 58 58 58 58 58 58 58 58 58 57 57 57 57 56
64 64 64 64 64 65 65 65 65 64 64 63 63 62 62 61 61 61 61 61 60 60 59 60 60 60 61 61 61 61 61 61 60 60 61 61 59 60 60 60 61 56 49 41 43 44 45 45 45 44 44 44 50 55 58 57 56 54 53 51 50 50 51 52 52 53 54 55 56
64 64 64 64 64 65 65 66 65 64 63 63 62 62 61 61 61 61 61 61 61 60 59 60 60 60 60 61 61 61 61 61 61 61 61 61 60 60 60 60 59 54 46 41 43 44 44 44 44 43 43 43 47 52 54 51 49 47 45 43 43 43 43 44 43 44 44 46 49
64 64 64 64 64 64 65 65 65 64 63 62 62 61 61 61 61 61 62 61 61 60 60 59 60 60 60 61 61 61 61 62 61 61 60 60 60 60 59 57 54 47 42 40 42 43 43 43 43 43 42 41 43 45 45 45 44 43 42 41 40 40 40 40 41 41 42 42 43
64 64 64 64 64 64 64 63 63 63 62 61 61 61 61 61 61 61 61 60 60 60 60 60 60 61 61 61 61 61 61 61 62 62 62 61 61 59 56 52 48 42 38 39 41 42 42 41 41 40 40 41 43 44 44 43 42 41 40 39 39 39 39 39 39 39 40 41 41
63 63 63 63 63 63 62 62 62 61 61 61 61 61 61 61 61 61 60 59 59 60 60 60 61 61 60 59 59 58 58 57 59 60 60 61 60 56 51 47 44 40 38 39 40 41 40 40 40 40 40 41 42 42 42 40 39 38 38 37 37 37 37 37 37 37 38 39 40
63 63 63 62 62 62 61 61 61 61 61 61 60 60 61 61 61 61 60 58 58 59 60 59 58 56 54 51 49 48 49 52 54 55 55 55 54 52 49 47 44 41 38 39 40 40 40 40 40 40 40 41 41 41 40 39 37 36 36 35 35 35 35 35 35 36 36 37 39
63 63 63 62 62 61 61 61 61 61 60 60 60 61 61 61 61 61 60 58 59 58 57 54 50 48 46 46 45 45 45 45 45 45 46 47 48 49 48 47 45 41 39 39 39 40 40 40 40 40 41 42 41 40 39 38 36 35 34 34 34 34 34 34 34 34 35 35 37
64 63 63 63 62 61 61 61 61 61 61 61 61 61 61 61 61 60 59 58 58 55 51 47 46 45 45 44 43 43 43 43 44 44 44 44 45 46 47 46 44 41 39 39 39 39 40 40 40 40 41 42 41 40 38 37 35 34 33 33 33 33 33 33 33 33 33 34 34
64 64 63 63 62 62 61 61 62 62 62 61 61 61 61 61 61 59 57 55 53 50 47 45 44 43 43 42 42 41 40 41 41 41 41 42 42 42 43 44 43 41 40 39 39 39 39 40 40 40 40 41 40 39 37 36 35 34 33 32 32 32 33 33 33 32 32 33 33
64 64 63 63 63 62 62 62 62 63 62 62 61 60 60 59 56 54 51 49 47 46 44 43 42 42 41 40 40 39 38 38 38 38 39 39 39 39 40 42 42 41 40 39 39 39 39 39 39 40 40 40 40 39 37 35 34 33 33 32 32 32 32 32 32 32 32 32 32
64 63 63 63 63 62 62 62 63 63 63 62 61 59 56 53 50 48 47 46 45 44 43 42 41 41 40 39 38 38 37 36 36 36 37 37 37 37 38 40 40 40 40 39 38 38 39 39 39 39 39 39 39 38 37 36 34 33 32 32 32 32 31 31 31 31 31 31 31
MSLP
1001.01 1001.21 1001.45 1001.65 1001.77 1001.93 1002.09 1002.21 1002.37 1002.53 1002.65 1002.93 1003.21 1003.37 1003.57 1003.77 1004.01 1004.21 1004.37 1004.57 1004.69 1004.77 1004.89 1005.09 1005.25 1005.45 1005.65 1005.81 1006.09 1006.33 1006.53 1006.77 1006.93 1007.13 1007.37 1007.57 1007.89 1008.21 1008.45 1008.69 1008.89 1009.21 1009.45 1009.57 1009.89 1010.13 1010.33 1010.53 1010.69 1010.93 1011.25 1011.57 1011.81 1012.01 1012.21 1012.33 1012.65 1012.89 1013.09 1013.37 1013.57 1013.89 1014.21 1014.25 1014.33 1014.33 1014.33 1014.33 1014.25
1000.89 1001.09 1001.33 1001.49 1001.69 1001.89 1002.09 1002.21 1002.37 1002.53 1002.57 1002.77 1003.09 1003.25 1003.45 1003.65 1003.89 1004.09 1004.25 1004.37 1004.53 1004.65 1004.77 1004.89 1005.13 1005.33 1005.45 1005.65 1005.89 1006.13 1006.45 1006.65 1006.81 1007.01 1007.21 1007.45 1007.69 1007.93 1008.21 1008.45 1008.69 1008.93 1009.21 1009.45 1009.69 1009.93 1010.13 1010.33 1010.57 1010.81 1011.13 1011.37 1011.65 1011.89 1012.09 1012.25 1012.45 1012.65 1012.89 1013.09 1013.37 1013.69 1014.01 1014.13 1014.21 1014.25 1014.25 1014.25 1014.21
1000.69 1000.93 1001.13 1001.37 1001.65 1001.81 1001.93 1002.21 1002.33 1002.45 1002.53 1002.65 1002.89 1003.13 1003.33 1003.49 1003.69 1003.89 1004.09 1004.21 1004.33 1004.45 1004.65 1004.77 1005.01 1005.21 1005.33 1005.49 1005.77 1006.01 1006.21 1006.45 1006.65 1006.89 1007.09 1007.33 1007.49 1007.77 1008.01 1008.25 1008.53 1008.77 1008.93 1009.21 1009.49 1009.69 1009.89 1010.09 1010.37 1010.65 1010.89 1011.13 1011.37 1011.65 1011.89 1012.13 1012.33 1012.53 1012.65 1012.89 1013.21 1013.49 1013.77 1013.93 1014.01 1014.09 1014.13 1014.21 1014.13
1000.53 1000.69 1000.93 1001.21 1001.45 1001.65 1001.77 1002.01 1002.21 1002.37 1002.45 1002.57 1002.81 1003.09 1003.25 1003.37 1003.49 1003.69 1003.89 1004.09 1004.21 1004.33 1004.45 1004.65 1004.81 1005.09 1005.25 1005.37 1005.57 1005.81 1006.09 1006.33 1006.53 1006.69 1006.89 1007.13 1007.37 1007.57 1007.77 1008.01 1008.33 1008.57 1008.77 1009.01 1009.25 1009.45 1009.65 1009.77 1010.09 1010.37 1010.57 1010.81 1011.09 1011.33 1011.65 1011.93 1012.13 1012.25 1012.45 1012.77 1013.09 1013.37 1013.57 1013.69 1013.81 1013.89 1013.93 1014.01 1014.09
1000.37 1000.57 1000.77 1001.01 1001.25 1001.45 1001.65 1001.81 1002.09 1002.25 1002.37 1002.53 1002.69 1003.01 1003.21 1003.25 1003.37 1003.57 1003.77 1003.93 1004.09 1004.21 1004.33 1004.45 1004.69 1004.89 1005.09 1005.33 1005.49 1005.69 1005.93 1006.21 1006.37 1006.57 1006.77 1007.01 1007.21 1007.37 1007.65 1007.89 1008.13 1008.33 1008.57 1008.81 1009.09 1009.25 1009.37 1009.57 1009.81 1010.13 1010.33 1010.57 1010.89 1011.21 1011.37 1011.65 1011.89 1012.09 1012.33 1012.65 1012.93 1013.21 1013.37 1013.57 1013.65 1013.77 1013.81 1013.89 1013.93
1000.21 1000.37 1000.65 1000.89 1001.13 1001.33 1001.49 1001.77 1002.01 1002.21 1002.37 1002.53 1002.77 1002.93 1003.09 1003.21 1003.33 1003.45 1003.65 1003.81 1003.93 1004.09 1004.21 1004.37 1004.53 1004.69 1004.93 1005.21 1005.37 1005.57 1005.77 1006.09 1006.25 1006.45 1006.65 1006.89 1007.13 1007.33 1007.57 1007.77 1007.93 1008.21 1008.45 1008.65 1008.89 1009.01 1009.21 1009.37 1009.57 1009.89 1010.21 1010.53 1010.77 1011.01 1011.21 1011.37 1011.57 1011.89 1012.21 1012.53 1012.77 1012.93 1013.13 1013.33 1013.49 1013.65 1013.77 1013.89 1013.93
1000.09 1000.25 1000.53 1000.77 1001.01 1001.25 1001.45 1001.69 1001.89 1002.09 1002.33 1002.53 1002.69 1002.81 1002.93 1003.09 1003.21 1003.33 1003.45 1003.65 1003.89 1004.01 1004.21 1004.37 1004.45 1004.57 1004.77 1005.09 1005.25 1005.45 1005.69 1005.93 1006.13 1006.25 1006.45 1006.77 1007.01 1007.21 1007.37 1007.65 1007.81 1008.01 1008.25 1008.53 1008.77 1008.89 1009.01 1009.21 1009.33 1009.65 1009.93 1010.33 1010.65 1010.81 1010.93 1011.21 1011.37 1011.69 1011.93 1012.25 1012.45 1012.65 1012.81 1013.09 1013.25 1013.45 1013.57 1013.69 1013.77
999.93 1000.13 1000.37 1000.69 1000.89 1001.13 1001.33 1001.57 1001.81 1002.01 1002.25 1002.45 1002.57 1002.69 1002.77 1002.93 1003.09 1003.21 1003.37 1003.57 1003.77 1003.93 1004.21 1004.33 1004.33 1004.45 1004.65 1004.89 1005.13 1005.37 1005.57 1005.77 1006.01 1006.21 1006.37 1006.65 1006.81 1007.01 1007.25 1007.49 1007.77 1007.89 1008.09 1008.25 1008.45 1008.69 1008.89 1009.09 1009.21 1009.37 1009.77 1010.09 1010.33 1010.57 1010.69 1010.89 1011.13 1011.37 1011.69 1011.89 1012.13 1012.37 1012.53 1012.65 1012.89 1013.13 1013.33 1013.37 1013.49
999.89 1000.09 1000.33 1000.57 1000.77 1001.01 1001.21 1001.49 1001.69 1001.93 1002.13 1002.33 1002.45 1002.57 1002.65 1002.81 1002.89 1003.01 1003.25 1003.49 1003.65 1003.81 1004.01 1004.21 1004.25 1004.37 1004.57 1004.77 1004.93 1005.21 1005.37 1005.49 1005.81 1006.09 1006.25 1006.45 1006.65 1006.89 1007.13 1007.37 1007.57 1007.81 1008.01 1008.13 1008.33 1008.57 1008.77 1008.89 1009.01 1009.21 1009.49 1009.81 1010.09 1010.25 1010.45 1010.65 1010.89 1011.13 1011.37 1011.65 1011.81 1012.09 1012.25 1012.33 1012.53 1012.77 1012.93 1013.13 1013.33
999.77 1000.01 1000.25 1000.53 1000.65 1000.89 1001.13 1001.37 1001.57 1001.81 1002.01 1002.21 1002.33 1002.45 1002.57 1002.69 1002.81 1002.93 1003.13 1003.37 1003.57 1003.77 1003.89 1004.01 1004.13 1004.25 1004.45 1004.65 1004.81 1005.01 1005.21 1005.45 1005.65 1005.89 1006.09 1006.33 1006.53 1006.69 1006.93 1007.21 1007.37 1007.69 1007.93 1008.13 1008.33 1008.53 1008.65 1008.69 1008.81 1009.01 1009.25 1009.57 1009.77 1009.93 1010.21 1010.45 1010.65 1010.89 1011.09 1011.33 1011.49 1011.69 1011.93 1012.13 1012.33 1012.53 1012.77 1012.93 1013.13
999.65 999.89 1000.13 1000.33 1000.53 1000.81 1001.09 1001.33 1001.49 1001.77 1001.93 1002.09 1002.25 1002.37 1002.53 1002.65 1002.69 1002.81 1003.01 1003.25 1003.49 1003.69 1003.77 1003.89 1004.09 1004.21 1004.37 1004.65 1004.77 1004.89 1005.13 1005.33 1005.49 1005.69 1005.89 1006.13 1006.33 1006.57 1006.77 1006.93 1007.13 1007.45 1007.77 1007.93 1008.13 1008.33 1008.53 1008.57 1008.69 1008.89 1009.21 1009.37 1009.57 1009.81 1010.01 1010.21 1010.45 1010.65 1010.81 1011.01 1011.21 1011.37 1011.65 1011.93 1012.13 1012.33 1012.53 1012.77 1012.93
999.57 999.81 1000.09 1000.25 1000.45 1000.77 1001.01 1001.25 1001.45 1001.69 1001.81 1002.01 1002.13 1002.25 1002.37 1002.53 1002.65 1002.77 1002.93 1003.13 1003.37 1003.57 1003.69 1003.81 1003.93 1004.13 1004.33 1004.57 1004.69 1004.89 1005.09 1005.21 1005.37 1005.57 1005.77 1005.93 1006.21 1006.37 1006.57 1006.77 1007.01 1007.25 1007.45 1007.69 1007.93 1008.13 1008.33 1008.37 1008.57 1008.81 1009.09 1009.25 1009.45 1009.69 1009.89 1010.09 1010.21 1010.37 1010.57 1010.81 1011.01 1011.21 1011.37 1011.57 1011.89 1012.13 1012.25 1012.53 1012.81
999.57 999.77 999.93 1000.13 1000.37 1000.69 1000.93 1001.21 1001.37 1001.57 1001.69 1001.89 1002.01 1002.13 1002.25 1002.37 1002.53 1002.69 1002.89 1003.13 1003.33 1003.45 1003.57 1003.77 1003.89 1004.09 1004.33 1004.45 1004.65 1004.77 1004.93 1005.09 1005.25 1005.49 1005.65 1005.81 1006.09 1006.25 1006.45 1006.65 1006.89 1007.13 1007.33 1007.49 1007.69 1007.89 1008.13 1008.25 1008.45 1008.69 1008.89 1009.09 1009.33 1009.49 1009.69 1009.89 1010.01 1010.21 1010.37 1010.57 1010.77 1010.93 1011.09 1011.33 1011.57 1011.89 1012.09 1012.33 1012.65
999.49 999.77 999.93 1000.13 1000.37 1000.65 1000.89 1001.13 1001.33 1001.49 1001.65 1001.77 1001.89 1002.01 1002.13 1002.33 1002.53 1002.69 1002.93 1003.13 1003.25 1003.33 1003.45 1003.65 1003.89 1004.09 1004.21 1004.33 1004.53 1004.69 1004.81 1005.09 1005.21 1005.37 1005.57 1005.69 1005.93 1006.13 1006.37 1006.53 1006.77 1006.93 1007.13 1007.37 1007.49 1007.69 1007.89 1008.09 1008.25 1008.45 1008.65 1008.89 1009.01 1009.25 1009.45 1009.65 1009.89 1010.01 1010.13 1010.33 1010.53 1010.69 1010.81 1011.01 1011.25 1011.65 1011.93 1012.21 1012.37
999.49 999.69 999.93 1000.13 1000.33 1000.57 1000.81 1001.01 1001.21 1001.45 1001.57 1001.69 1001.77 1001.89 1002.09 1002.25 1002.57 1002.77 1002.89 1003.01 1003.13 1003.25 1003.37 1003.57 1003.81 1004.01 1004.13 1004.25 1004.37 1004.57 1004.77 1004.93 1005.13 1005.25 1005.45 1005.65 1005.81 1006.09 1006.25 1006.53 1006.69 1006.81 1007.01 1007.21 1007.37 1007.49 1007.65 1007.81 1008.01 1008.21 1008.37 1008.57 1008.77 1009.01 1009.25 1009.49 1009.69 1009.81 1009.93 1010.13 1010.25 1010.45 1010.57 1010.81 1011.09 1011.37 1011.69 1011.89 1012.13
999.45 999.65 999.81 1000.01 1000.25 1000.53 1000.69 1000.89 1001.13 1001.33 1001.49 1001.57 1001.69 1001.81 1002.01 1002.25 1002.53 1002.69 1002.81 1002.89 1003.01 1003.21 1003.33 1003.49 1003.69 1003.89 1004.09 1004.25 1004.37 1004.53 1004.69 1004.81 1005.01 1005.13 1005.33 1005.49 1005.77 1005.93 1006.13 1006.33 1006.57 1006.69 1006.81 1007.01 1007.21 1007.33 1007.49 1007.65 1007.77 1007.93 1008.13 1008.33 1008.57 1008.81 1009.09 1009.25 1009.49 1009.65 1009.81 1010.01 1010.13 1010.25 1010.45 1010.65 1010.89 1011.21 1011.45 1011.69 1011.81
999.37 999.65 999.81 1000.01 1000.25 1000.45 1000.65 1000.81 1001.09 1001.25 1001.37 1001.49 1001.65 1001.81 1002.01 1002.25 1002.45 1002.65 1002.77 1002.81 1002.93 1003.13 1003.25 1003.45 1003.65 1003.81 1003.93 1004.21 1004.33 1004.53 1004.65 1004.77 1004.89 1005.09 1005.21 1005.33 1005.49 1005.69 1005.89 1006.09 1006.33 1006.53 1006.69 1006.81 1007.01 1007.13 1007.33 1007.45 1007.65 1007.81 1008.01 1008.21 1008.37 1008.65 1008.81 1009.01 1009.25 1009.45 1009.65 1009.77 1009.93 1010.09 1010.25 1010.45 1010.69 1010.93 1011.21 1011.45 1011.65
999.37 999.57 999.77 999.93 1000.21 1000.45 1000.65 1000.77 1000.93 1001.13 1001.25 1001.37 1001.65 1001.81 1002.09 1002.21 1002.37 1002.53 1002.65 1002.77 1002.89 1003.01 1003.21 1003.33 1003.49 1003.69 1003.89 1004.09 1004.25 1004.37 1004.57 1004.65 1004.81 1004.93 1005.09 1005.21 1005.37 1005.57 1005.77 1005.89 1006.13 1006.33 1006.53 1006.69 1006.89 1007.01 1007.09 1007.25 1007.45 1007.69 1007.89 1008.09 1008.21 1008.37 1008.57 1008.77 1009.01 1009.21 1009.37 1009.57 1009.69 1009.89 1010.09 1010.25 1010.53 1010.77 1010.93 1011.21 1011.37
999.33 999.49 999.69 999.89 1000.13 1000.37 1000.57 1000.69 1000.81 1001.01 1001.21 1001.33 1001.57 1001.81 1002.01 1002.13 1002.25 1002.37 1002.53 1002.65 1002.77 1002.93 1003.09 1003.25 1003.45 1003.65 1003.81 1004.01 1004.13 1004.33 1004.53 1004.57 1004.69 1004.81 1005.01 1005.13 1005.25 1005.45 1005.65 1005.77 1005.93 1006.13 1006.37 1006.53 1006.65 1006.81 1007.01 1007.13 1007.33 1007.49 1007.69 1007.93 1008.09 1008.25 1008.45 1008.57 1008.77 1008.93 1009.13 1009.33 1009.45 1009.65 1009.89 1010.09 1010.33 1010.57 1010.77 1011.01 1011.21
999.21 999.45 999.65 999.81 1000.09 1000.33 1000.53 1000.65 1000.77 1000.93 1001.13 1001.33 1001.65 1001.81 1001.89 1002.01 1002.13 1002.25 1002.37 1002.57 1002.69 1002.89 1003.09 1003.25 1003.37 1003.57 1003.77 1003.89 1004.09 1004.25 1004.37 1004.53 1004.65 1004.81 1005.01 1005.09 1005.21 1005.37 1005.49 1005.65 1005.81 1006.01 1006.21 1006.33 1006.53 1006.69 1006.89 1007.09 1007.21 1007.37 1007.57 1007.77 1007.93 1008.13 1008.25 1008.37 1008.57 1008.69 1008.81 1009.09 1009.25 1009.45 1009.69 1009.89 1010.21 1010.37 1010.65 1010.81 1011.01
999.13 999.37 999.57 999.77 1000.01 1000.21 1000.37 1000.57 1000.77 1000.93 1001.13 1001.33 1001.57 1001.69 1001.81 1001.89 1002.01 1002.21 1002.33 1002.45 1002.69 1002.89 1003.09 1003.21 1003.33 1003.49 1003.65 1003.81 1004.01 1004.13 1004.33 1004.53 1004.65 1004.77 1004.93 1005.09 1005.21 1005.33 1005.45 1005.57 1005.77 1005.93 1006.09 1006.21 1006.37 1006.57 1006.77 1006.89 1007.13 1007.33 1007.45 1007.57 1007.81 1007.93 1008.09 1008.21 1008.33 1008.53 1008.69 1008.89 1009.09 1009.25 1009.45 1009.65 1009.93 1010.25 1010.45 1010.65 1010.77
999.09 999.33 999.49 999.77 999.93 1000.21 1000.37 1000.53 1000.77 1000.93 1001.13 1001.25 1001.45 1001.65 1001.77 1001.81 1002.01 1002.13 1002.25 1002.45 1002.65 1002.81 1003.01 1003.13 1003.25 1003.45 1003.57 1003.69 1003.89 1004.01 1004.25 1004.45 1004.57 1004.69 1004.89 1005.01 1005.13 1005.33 1005.45 1005.57 1005.69 1005.89 1006.01 1006.13 1006.33 1006.45 1006.69 1006.89 1007.09 1007.21 1007.37 1007.49 1007.69 1007.81 1007.93 1008.09 1008.25 1008.37 1008.65 1008.81 1008.93 1009.09 1009.21 1009.37 1009.69 1010.01 1010.21 1010.37 1010.53
999.01 999.25 999.49 999.77 999.89 1000.13 1000.33 1000.53 1000.69 1000.93 1001.13 1001.21 1001.37 1001.57 1001.69 1001.81 1001.93 1002.09 1002.25 1002.45 1002.65 1002.77 1002.93 1003.13 1003.25 1003.37 1003.49 1003.65 1003.77 1003.93 1004.13 1004.37 1004.53 1004.65 1004.81 1004.93 1005.09 1005.25 1005.37 1005.57 1005.65 1005.81 1005.93 1006.09 1006.21 1006.37 1006.65 1006.81 1007.01 1007.13 1007.33 1007.45 1007.65 1007.77 1007.89 1007.93 1008.13 1008.33 1008.45 1008.65 1008.77 1008.81 1008.93 1009.21 1009.45 1009.77 1009.93 1010.13 1010.33
998.93 999.21 999.45 999.65 999.81 1000.09 1000.25 1000.45 1000.65 1000.89 1001.09 1001.21 1001.37 1001.49 1001.65 1001.77 1001.93 1002.09 1002.25 1002.45 1002.57 1002.77 1002.93 1003.09 1003.21 1003.33 1003.45 1003.57 1003.69 1003.89 1004.09 1004.33 1004.45 1004.65 1004.77 1004.89 1005.09 1005.21 1005.37 1005.49 1005.65 1005.81 1005.93 1006.01 1006.13 1006.33 1006.57 1006.77 1006.93 1007.13 1007.33 1007.45 1007.57 1007.77 1007.81 1007.93 1008.09 1008.21 1008.37 1008.53 1008.65 1008.77 1008.89 1009.01 1009.25 1009.49 1009.69 1009.89 1010.13
998.89 999.09 999.33 999.57 999.77 1000.01 1000.21 1000.37 1000.65 1000.81 1001.01 1001.21 1001.37 1001.49 1001.65 1001.81 1001.89 1002.09 1002.25 1002.45 1002.57 1002.69 1002.89 1003.09 1003.13 1003.25 1003.37 1003.57 1003.77 1003.89 1004.09 1004.25 1004.37 1004.53 1004.69 1004.89 1005.01 1005.13 1005.33 1005.49 1005.65 1005.77 1005.89 1006.01 1006.21 1006.45 1006.65 1006.77 1006.89 1007.09 1007.25 1007.45 1007.57 1007.69 1007.81 1007.93 1008.01 1008.13 1008.25 1008.45 1008.57 1008.69 1008.81 1008.93 1009.09 1009.33 1009.57 1009.69 1009.89
998.89 999.09 999.25 999.49 999.69 999.89 1000.13 1000.33 1000.53 1000.77 1000.93 1001.13 1001.37 1001.49 1001.69 1001.81 1001.93 1002.13 1002.33 1002.45 1002.57 1002.69 1002.89 1003.09 1003.13 1003.33 1003.45 1003.65 1003.77 1003.93 1004.13 1004.25 1004.33 1004.53 1004.69 1004.81 1004.93 1005.13 1005.33 1005.45 1005.65 1005.77 1005.89 1006.09 1006.33 1006.53 1006.57 1006.69 1006.89 1007.01 1007.21 1007.33 1007.49 1007.69 1007.81 1007.93 1008.09 1008.13 1008.25 1008.37 1008.45 1008.57 1008.77 1008.89 1009.01 1009.25 1009.45 1009.49 1009.69
998.89 999.09 999.25 999.45 999.69 999.89 1000.09 1000.25 1000.53 1000.69 1000.89 1001.13 1001.33 1001.49 1001.69 1001.81 1002.01 1002.13 1002.33 1002.45 1002.57 1002.69 1002.89 1003.09 1003.21 1003.37 1003.57 1003.65 1003.77 1003.89 1004.09 1004.25 1004.33 1004.45 1004.65 1004.81 1004.93 1005.13 1005.33 1005.45 1005.49 1005.65 1005.81 1006.09 1006.25 1006.45 1006.57 1006.69 1006.81 1006.93 1007.09 1007.21 1007.37 1007.57 1007.77 1007.89 1008.09 1008.13 1008.21 1008.37 1008.45 1008.57 1008.69 1008.81 1008.93 1009.13 1009.37 1009.45 1009.57
998.89 999.09 999.25 999.45 999.65 999.81 1000.09 1000.21 1000.45 1000.65 1000.81 1001.09 1001.25 1001.45 1001.65 1001.81 1002.01 1002.13 1002.33 1002.45 1002.57 1002.77 1002.93 1003.09 1003.25 1003.45 1003.57 1003.69 1003.77 1003.89 1004.09 1004.25 1004.33 1004.45 1004.65 1004.81 1004.93 1005.09 1005.25 1005.37 1005.49 1005.65 1005.77 1006.09 1006.25 1006.37 1006.57 1006.77 1006.89 1007.01 1007.09 1007.21 1007.25 1007.45 1007.65 1007.81 1008.01 1008.13 1008.25 1008.37 1008.45 1008.57 1008.77 1008.89 1009.01 1009.13 1009.25 1009.37 1009.57
998.81 999.01 999.25 999.45 999.65 999.81 1000.01 1000.21 1000.37 1000.57 1000.81 1001.09 1001.25 1001.45 1001.65 1001.81 1002.01 1002.13 1002.33 1002.53 1002.65 1002.81 1003.01 1003.13 1003.25 1003.45 1003.57 1003.69 1003.77 1003.89 1004.09 1004.25 1004.33 1004.45 1004.65 1004.77 1004.93 1005.09 1005.21 1005.33 1005.45 1005.65 1005.81 1006.01 1006.21 1006.37 1006.57 1006.69 1006.81 1006.93 1007.09 1007.21 1007.25 1007.45 1007.65 1007.77 1007.93 1008.09 1008.25 1008.37 1008.53 1008.65 1008.81 1008.93 1009.01 1009.13 1009.33 1009.45 1009.57
998.81 999.01 999.21 999.37 999.57 999.77 999.93 1000.13 1000.37 1000.57 1000.77 1001.01 1001.21 1001.37 1001.57 1001.77 1001.93 1002.13 1002.33 1002.53 1002.69 1002.81 1002.93 1003.09 1003.33 1003.49 1003.57 1003.69 1003.77 1003.93 1004.13 1004.25 1004.33 1004.45 1004.65 1004.77 1004.93 1005.09 1005.21 1005.33 1005.37 1005.57 1005.81 1006.01 1006.13 1006.33 1006.53 1006.65 1006.81 1006.93 1007.09 1007.21 1007.21 1007.37 1007.57 1007.69 1007.89 1008.09 1008.21 1008.33 1008.45 1008.57 1008.77 1008.93 1009.09 1009.21 1009.37 1009.49 1009.69
998.81 998.93 999.13 999.33 999.49 999.69 999.89 1000.09 1000.33 1000.53 1000.77 1001.01 1001.25 1001.37 1001.57 1001.77 1001.89 1002.09 1002.25 1002.53 1002.69 1002.81 1002.93 1003.13 1003.25 1003.45 1003.57 1003.65 1003.77 1003.93 1004.13 1004.25 1004.37 1004.53 1004.65 1004.77 1004.93 1005.09 1005.21 1005.33 1005.33 1005.49 1005.77 1006.01 1006.09 1006.25 1006.37 1006.57 1006.69 1006.89 1007.09 1007.21 1007.25 1007.37 1007.57 1007.81 1008.09 1008.33 1008.65 1008.81 1009.09 1009.21 1009.25 1009.25 1009.37 1009.45 1009.49 1009.57 1009.65
998.77 998.89 999.09 999.25 999.45 999.65 999.81 1000.09 1000.33 1000.53 1000.77 1001.01 1001.21 1001.37 1001.57 1001.77 1001.89 1002.09 1002.25 1002.53 1002.69 1002.89 1003.09 1003.21 1003.33 1003.45 1003.65 1003.69 1003.77 1003.89 1004.09 1004.25 1004.33 1004.37 1004.53 1004.77 1004.93 1005.09 1005.21 1005.33 1005.45 1005.65 1005.89 1006.09 1006.13 1006.21 1006.33 1006.53 1006.77 1007.01 1007.25 1007.45 1007.57 1007.69 1007.89 1008.33 1008.65 1008.93 1009.25 1009.45 1009.65 1009.77 1009.81 1009.89 1010.01 1010.09 1010.13 1010.13 1010.09
998.77 998.89 999.09 999.25 999.45 999.65 999.81 1000.09 1000.25 1000.53 1000.77 1000.93 1001.13 1001.33 1001.57 1001.69 1001.93 1002.09 1002.25 1002.53 1002.69 1002.89 1003.09 1003.21 1003.33 1003.49 1003.65 1003.77 1003.89 1004.01 1004.09 1004.13 1004.25 1004.45 1004.65 1004.81 1004.93 1005.09 1005.25 1005.57 1005.77 1005.93 1006.09 1006.13 1006.13 1006.25 1006.45 1006.77 1007.01 1007.33 1007.57 1007.77 1008.01 1008.21 1008.45 1008.69 1009.01 1009.33 1009.69 1009.93 1010.13 1010.25 1010.33 1010.45 1010.57 1010.57 1010.57 1010.57 1010.57
998.69 998.89 999.01 999.21 999.37 999.57 999.81 1000.09 1000.25 1000.45 1000.69 1000.93 1001.21 1001.37 1001.57 1001.69 1001.93 1002.13 1002.33 1002.57 1002.77 1002.93 1003.09 1003.21 1003.33 1003.49 1003.57 1003.65 1003.81 1003.93 1004.13 1004.25 1004.33 1004.45 1004.57 1004.69 1004.93 1005.21 1005.49 1005.89 1006.21 1006.37 1006.37 1006.25 1006.37 1006.53 1006.77 1007.13 1007.37 1007.65 1007.81 1008.01 1008.25 1008.57 1008.89 1009.13 1009.49 1009.81 1010.13 1010.37 1010.65 1010.77 1010.77 1010.89 1011.01 1011.09 1011.13 1011.09 1011.09
998.77 998.81 999.01 999.21 999.37 999.57 999.81 1000.09 1000.33 1000.53 1000.69 1000.93 1001.13 1001.37 1001.65 1001.77 1001.93 1002.13 1002.33 1002.65 1002.81 1002.93 1003.09 1003.25 1003.33 1003.45 1003.65 1003.89 1004.01 1004.21 1004.33 1004.53 1004.57 1004.65 1004.69 1004.81 1005.09 1005.49 1005.93 1006.25 1006.45 1006.57 1006.57 1006.45 1006.57 1006.81 1007.09 1007.33 1007.57 1007.77 1007.93 1008.25 1008.57 1008.93 1009.25 1009.57 1010.01 1010.33 1010.57 1010.81 1011.01 1011.13 1011.25 1011.37 1011.45 1011.57 1011.65 1011.49 1011.45
998.69 998.81 999.01 999.21 999.37 999.57 999.81 1000.09 1000.25 1000.53 1000.77 1000.93 1001.13 1001.37 1001.65 1001.81 1002.01 1002.13 1002.33 1002.65 1002.81 1003.01 1003.21 1003.37 1003.57 1003.81 1004.21 1004.65 1004.89 1005.09 1005.13 1005.09 1005.09 1005.09 1005.13 1005.25 1005.45 1005.81 1006.21 1006.53 1006.69 1006.81 1006.81 1006.69 1006.81 1007.01 1007.25 1007.37 1007.57 1007.77 1008.09 1008.45 1008.93 1009.33 1009.65 1010.01 1010.45 1010.77 1011.01 1011.21 1011.45 1011.65 1011.81 1011.89 1011.93 1012.01 1012.01 1011.89 1011.77
998.69 998.81 999.01 999.25 999.37 999.57 999.77 1000.01 1000.25 1000.45 1000.69 1000.93 1001.13 1001.37 1001.65 1001.81 1002.01 1002.13 1002.37 1002.69 1002.89 1003.13 1003.37 1003.81 1004.25 1004.53 1004.81 1005.09 1005.33 1005.49 1005.69 1005.77 1005.81 1005.89 1006.01 1006.01 1006.09 1006.21 1006.45 1006.69 1007.01 1007.13 1007.13 1007.09 1007.09 1007.13 1007.33 1007.45 1007.57 1007.77 1008.09 1008.65 1009.13 1009.57 1009.93 1010.33 1010.77 1011.09 1011.33 1011.57 1011.89 1012.09 1012.21 1012.33 1012.37 1012.45 1012.45 1012.37 1012.25
998.69 998.81 998.93 999.21 999.45 999.65 999.81 1000.09 1000.25 1000.45 1000.69 1000.93 1001.13 1001.37 1001.65 1001.81 1002.01 1002.21 1002.37 1002.69 1003.01 1003.49 1004.09 1004.45 1004.69 1004.93 1005.21 1005.45 1005.77 1006.01 1006.13 1006.25 1006.25 1006.33 1006.45 1006.57 1006.65 1006.69 1006.89 1007.09 1007.33 1007.49 1007.57 1007.45 1007.37 1007.37 1007.45 1007.57 1007.69 1007.81 1008.21 1008.69 1009.25 1009.69 1010.13 1010.57 1011.01 1011.37 1011.69 1012.01 1012.25 1012.37 1012.57 1012.69 1012.81 1012.89 1013.01 1013.01 1012.89
998.65 998.81 999.01 999.21 999.45 999.69 999.89 1000.09 1000.25 1000.45 1000.69 1000.93 1001.21 1001.45 1001.65 1001.81 1002.01 1002.25 1002.57 1002.93 1003.37 1003.93 1004.45 1004.77 1005.09 1005.37 1005.65 1005.81 1006.09 1006.45 1006.69 1006.81 1006.93 1006.93 1007.09 1007.21 1007.33 1007.33 1007.33 1007.45 1007.69 1007.89 1008.01 1007.93 1007.89 1007.77 1007.77 1007.77 1007.81 1008.01 1008.33 1008.81 1009.33 1009.77 1010.21 1010.69 1011.21 1011.65 1011.93 1012.25 1012.53 1012.77 1012.93 1013.09 1013.21 1013.37 1013.49 1013.57 1013.49
998.65 998.81 999.01 999.21 999.49 999.77 999.89 1000.09 1000.25 1000.45 1000.65 1000.93 1001.25 1001.49 1001.69 1002.01 1002.33 1002.69 1003.13 1003.65 1004.01 1004.45 1004.89 1005.21 1005.49 1005.77 1005.93 1006.13 1006.45 1006.81 1007.21 1007.37 1007.49 1007.57 1007.69 1007.81 1007.89 1007.89 1007.81 1007.89 1008.01 1008.21 1008.37 1008.45 1008.45 1008.37 1008.33 1008.21 1008.21 1008.33 1008.57 1008.93 1009.37 1009.81 1010.33 1010.77 1011.33 1011.81 1012.21 1012.53 1012.77 1013.09 1013.33 1013.49 1013.65 1013.81 1014.01 1014.09 1014.13
998.65 998.81 999.01 999.25 999.57 999.69 999.89 1000.09 1000.25 1000.45 1000.65 1000.93 1001.25 1001.65 1002.09 1002.45 1002.89 1003.25 1003.65 1004.09 1004.53 1004.93 1005.33 1005.65 1005.89 1006.13 1006.37 1006.57 1006.89 1007.25 1007.57 1007.81 1008.01 1008.21 1008.33 1008.33 1008.37 1008.37 1008.37 1008.53 1008.57 1008.69 1008.81 1008.93 1008.93 1008.93 1008.93 1008.89 1008.81 1008.77 1008.89 1009.21 1009.57 1009.93 1010.37 1010.77 1011.37 1011.93 1012.45 1012.77 1013.01 1013.33 1013.65 1013.89 1014.09 1014.33 1014.53 1014.65 1014.77
Wind_Speed
13 12 10 9 8 8 8 8 7 8 9 9 9 8 8 9 8 8 7 8 8 8 9 9 9 9 10 12 13 13 13 14 15 15 15 16 16 17 18 17 16 15 14 14 13 13 12 13 12 11 10 10 11 11 11 11 11 11 11 11 10 10 10 11 11 11 12 12 11
14 13 11 9 8 7 7 7 7 7 8 9 8 9 9 9 8 8 8 8 8 9 9 8 9 10 11 13 13 13 13 14 15 15 15 16 16 17 18 17 17 17 16 17 15 13 13 15 13 12 10 11 11 12 12 12 11 12 13 14 11 9 9 10 10 11 11 10 10
14 13 11 10 9 8 8 7 7 9 9 9 8 9 9 9 8 8 8 9 9 9 9 8 9 10 12 13 13 12 12 13 15 15 14 14 16 17 17 16 18 18 18 18 16 14 14 16 14 12 11 11 12 13 13 13 12 12 12 15 11 9 8 8 9 9 9 7 8
13 13 12 12 13 12 10 8 9 10 10 9 9 9 9 8 8 8 9 10 10 10 9 9 9 10 11 12 13 13 12 12 14 15 15 14 15 16 17 16 17 18 18 19 17 16 16 17 14 11 11 12 13 13 13 13 13 12 11 12 10 9 8 8 8 8 7 7 8
14 13 12 13 14 14 12 10 11 11 10 8 8 8 8 8 8 8 8 9 9 9 10 10 10 10 11 12 14 14 13 12 13 13 14 14 15 16 16 16 17 17 17 18 17 16 17 18 13 11 11 12 12 13 14 14 14 13 11 9 9 9 9 8 8 8 8 7 7
13 13 13 13 14 14 12 11 12 12 10 8 9 9 9 8 8 8 9 9 8 10 11 12 11 11 11 12 14 14 13 12 12 13 14 15 15 15 16 16 17 17 16 17 17 17 17 17 12 11 11 11 12 13 15 16 15 13 12 10 10 10 9 9 8 9 9 9 8
13 13 14 14 15 14 12 11 12 12 11 9 10 11 11 10 10 11 11 9 8 9 10 10 11 11 12 13 13 13 12 12 12 13 14 14 14 15 16 16 17 17 17 17 16 17 17 16 12 11 10 10 10 13 17 16 15 15 14 12 11 10 10 11 10 10 11 13 13
14 14 15 15 15 15 14 13 12 11 10 9 10 12 14 13 13 12 11 9 9 9 9 9 12 13 13 13 13 13 13 13 13 13 14 14 15 16 17 17 17 17 18 17 16 16 16 14 12 11 11 10 9 12 16 19 18 17 16 15 12 11 11 11 11 11 12 15 16
13 14 15 15 15 15 14 14 13 12 11 10 12 13 14 14 14 13 11 9 9 10 10 10 12 13 14 14 14 13 13 13 13 13 13 14 16 17 17 16 16 16 16 16 16 17 16 13 11 11 11 11 10 12 15 19 20 20 19 16 14 13 12 12 13 13 13 14 17
12 13 14 14 15 15 14 14 14 14 13 12 13 13 13 12 12 12 10 8 9 10 11 11 12 13 14 14 13 13 13 13 13 13 14 14 15 17 17 16 17 16 15 15 15 16 16 12 11 11 12 11 12 14 16 19 21 21 19 14 15 16 16 14 14 14 14 13 16
13 13 13 13 14 14 14 14 13 13 13 12 13 13 12 11 11 11 10 8 9 11 12 12 12 13 13 12 12 12 12 11 12 12 14 14 15 16 17 17 18 17 16 15 15 14 13 12 12 14 14 12 14 15 17 19 20 21 20 14 17 19 19 17 15 14 14 14 16
13 13 13 13 14 14 13 13 12 12 12 13 13 13 12 11 11 11 10 10 11 12 12 12 12 12 12 10 11 11 11 11 12 12 13 14 15 17 17 18 18 18 17 17 15 14 12 13 13 15 16 15 13 14 16 18 19 20 19 17 18 20 20 19 17 15 13 15 16
13 13 13 13 14 14 13 12 11 11 12 13 13 12 11 11 10 10 10 11 11 11 10 11 11 11 11 10 10 11 11 11 12 12 12 13 14 16 17 17 18 18 17 17 16 14 14 14 16 17 17 17 15 14 15 18 19 19 19 18 19 19 20 20 18 16 15 16 16
13 13 13 13 14 13 13 12 10 10 11 12 12 11 10 9 9 10 10 11 11 10 10 10 9 9 10 11 11 11 11 11 12 11 11 12 13 14 16 16 17 17 17 15 16 16 16 16 17 18 18 18 17 16 16 17 17 18 18 19 19 19 19 19 19 18 17 18 17
13 13 13 13 13 12 12 12 10 10 10 12 11 10 9 8 9 10 10 11 11 10 9 9 9 9 10 11 11 12 12 12 12 12 12 12 13 14 14 14 16 16 16 15 16 17 18 18 18 18 18 18 18 18 17 16 16 17 18 18 18 18 18 18 18 18 18 19 19
13 13 13 13 13 12 11 11 9 9 10 10 10 9 8 8 9 10 10 11 10 9 9 9 9 9 10 10 11 12 12 12 12 12 13 13 14 14 14 14 15 16 16 16 17 17 18 18 18 18 18 18 18 18 18 17 17 17 18 18 18 18 18 17 17 18 18 19 19
13 13 13 13 13 12 12 11 9 9 9 9 9 8 8 8 9 9 10 10 9 9 9 10 10 9 9 9 10 10 11 11 12 12 13 13 15 15 15 15 15 16 16 17 17 17 17 17 16 17 17 18 18 18 19 19 18 18 18 19 19 18 18 17 17 17 17 18 19
13 13 13 13 13 13 12 12 10 10 10 10 9 8 9 9 10 9 9 9 9 9 10 11 10 10 10 10 10 9 9 11 11 12 13 14 15 15 15 15 15 15 15 16 16 16 16 16 16 16 16 17 17 18 19 20 19 19 19 20 20 19 18 17 17 16 16 17 17
13 13 13 13 13 13 12 12 11 10 10 10 9 9 10 11 11 11 10 10 10 10 10 10 10 10 10 11 11 10 9 10 12 12 13 14 14 15 15 15 14 14 14 15 15 15 15 16 16 16 16 16 17 18 19 20 20 20 20 19 19 19 18 17 17 16 15 16 16
13 13 13 12 12 12 12 11 11 10 10 10 10 11 11 12 12 12 12 11 10 10 10 10 10 10 11 12 11 11 10 9 11 12 13 13 13 14 14 15 15 14 14 15 15 15 15 15 15 16 16 16 17 18 19 20 20 20 19 18 18 18 18 17 17 16 16 16 16
13 13 12 12 12 12 12 11 10 10 10 10 11 12 12 12 12 12 12 12 11 10 10 10 10 11 11 12 12 12 11 9 11 12 12 12 12 13 13 13 13 13 13 14 14 15 15 14 14 14 14 14 15 16 17 18 18 18 18 16 16 17 18 17 17 17 16 16 17
13 12 12 12 12 12 11 11 10 10 10 11 11 12 11 11 12 12 12 11 11 11 10 10 10 11 11 11 12 12 11 9 10 11 11 11 11 12 12 11 12 12 12 13 13 14 14 13 12 11 11 11 11 12 13 14 15 16 16 16 17 18 18 18 17 17 17 17 17
12 12 11 11 11 11 11 11 11 11 11 11 11 11 11 11 11 11 11 11 10 10 10 10 9 10 10 11 11 11 11 10 11 11 11 11 11 11 11 10 11 11 12 11 12 12 11 11 10 9 9 9 9 9 9 10 11 12 14 16 17 18 18 18 17 17 17 17 17
12 12 11 10 11 11 11 11 11 11 11 11 11 11 11 10 10 10 10 10 10 10 10 9 8 9 10 10 10 11 11 11 11 11 11 11 11 11 10 10 10 10 10 9 9 9 9 8 8 8 8 8 8 8 8 8 9 10 11 13 15 16 17 18 17 17 17 17 17
13 12 11 10 11 12 12 12 12 12 11 11 11 11 10 10 10 10 10 10 10 10 10 9 8 8 9 9 9 10 10 11 11 11 11 10 10 10 9 8 8 7 7 7 8 9 9 8 8 7 7 7 7 7 7 7 8 9 9 10 12 13 14 16 17 17 16 17 16
12 12 12 12 12 12 13 13 12 12 12 11 11 10 10 9 9 9 10 10 10 10 9 9 8 7 7 8 9 9 9 9 9 10 10 9 10 9 9 7 6 6 6 6 8 10 11 10 9 8 8 8 8 7 7 7 8 8 9 9 9 10 11 12 14 15 15 14 15
12 12 12 12 12 13 13 13 12 12 11 11 10 10 10 9 9 9 10 10 10 10 9 8 7 6 6 7 9 9 9 8 8 9 9 9 9 10 9 8 7 6 6 7 9 11 12 12 11 10 9 9 8 8 7 7 7 8 8 8 8 9 9 10 11 12 12 11 12
11 11 11 12 12 12 12 12 12 12 11 10 10 10 10 10 9 10 10 10 10 9 8 7 7 6 5 6 8 9 9 8 8 8 8 9 9 10 9 8 8 7 6 9 11 12 13 12 12 11 10 9 9 8 8 7 7 7 7 7 7 7 7 7 8 8 8 8 8
11 12 12 12 12 11 11 11 11 11 11 11 10 10 10 10 10 10 10 10 9 8 7 6 6 5 5 6 7 8 8 8 8 8 8 9 9 9 9 9 9 8 8 10 13 13 13 13 13 12 11 10 8 7 7 7 6 6 6 6 7 7 7 7 6 6 6 7 6
12 12 12 12 12 11 11 11 11 11 10 10 10 10 10 10 10 10 10 10 9 8 7 6 6 6 6 7 7 7 7 7 7 7 8 9 9 9 9 9 9 8 9 12 13 14 14 14 14 13 13 12 10 8 7 7 6 6 5 4 4 5 5 5 6 6 7 7 8
12 12 13 12 12 11 11 11 11 10 10 9 10 11 11 10 10 10 9 9 9 7 7 7 7 7 7 7 7 7 7 7 7 7 8 9 8 9 9 9 9 8 8 12 14 15 15 15 15 14 13 12 9 7 5 3 2 1 2 3 4 4 4 4 3 2 0 3 5
12 12 12 12 11 11 10 10 10 10 10 10 11 11 11 10 10 10 9 9 8 8 7 7 8 8 8 8 8 8 8 8 8 8 8 8 8 8 8 7 6 5 6 11 14 15 15 14 12 9 7 4 3 3 5 7 8 8 9 9 10 10 9 8 8 8 8 6 3
12 12 11 11 11 10 10 10 11 11 11 11 11 11 11 10 10 9 9 8 8 8 8 8 8 9 9 9 8 9 9 8 8 8 8 8 8 7 6 5 4 3 2 7 11 12 11 9 9 11 12 12 11 10 10 10 9 9 10 10 11 11 11 11 9 9 9 9 8
10 11 11 11 11 11 11 11 11 11 12 12 12 11 11 10 10 9 9 8 7 8 8 8 8 8 8 8 8 8 8 7 8 9 9 9 8 6 5 6 4 4 3 2 7 10 12 15 16 17 16 14 12 12 12 12 11 11 11 11 11 11 12 12 12 11 11 10 8
9 10 10 11 11 11 12 12 12 12 12 12 11 11 11 10 10 10 9 7 7 7 8 8 7 6 4 2 1 1 1 2 5 7 8 8 7 6 7 7 6 6 6 7 12 16 18 19 19 18 17 14 12 12 13 14 13 13 13 13 13 13 14 13 13 12 11 10 8
9 9 10 10 11 11 12 12 12 12 12 11 11 11 11 10 10 9 8 7 7 7 7 5 5 6 8 10 10 9 9 8 6 5 4 4 6 8 8 8 8 8 8 12 17 20 20 20 20 19 17 14 12 11 12 12 12 13 14 15 14 14 14 14 13 12 11 10 9
9 9 9 10 10 11 12 12 12 12 11 10 10 10 11 10 10 9 8 7 7 7 7 9 10 11 11 12 11 11 12 12 12 12 11 10 9 9 9 9 9 8 8 12 18 20 20 20 20 19 17 14 12 12 12 11 11 12 13 14 14 14 13 12 13 14 14 14 12
9 9 9 9 10 10 11 12 12 11 10 10 10 10 10 10 9 9 8 7 8 9 11 12 12 12 12 13 13 13 14 13 13 13 12 12 11 10 9 10 10 8 7 9 15 18 19 19 19 18 16 14 13 12 11 11 11 11 11 12 12 12 12 11 11 13 16 18 18
10 9 9 9 9 10 11 11 11 11 10 10 9 9 10 9 8 7 7 7 10 12 13 12 12 13 13 14 14 14 15 15 15 14 14 13 12 12 11 11 10 9 7 7 10 14 16 18 19 18 17 15 14 12 11 11 12 12 11 11 11 12 12 11 11 12 15 20 23
10 10 9 9 9 9 10 11 11 10 10 10 10 9 9 8 8 10 11 12 13 13 13 13 14 13 13 14 15 15 16 16 16 15 15 15 14 14 14 13 12 11 10 9 9 10 13 15 17 17 16 14 13 12 11 11 12 12 11 10 10 10 11 11 11 12 14 17 21
10 10 10 9 9 9 10 11 11 11 10 10 10 9 9 10 12 13 13 13 14 13 13 13 14 14 14 14 14 15 16 17 16 16 16 16 16 16 15 15 15 14 14 13 13 12 12 13 14 14 14 13 12 11 10 11 12 13 13 11 10 10 11 11 11 12 13 14 15
Wind_Direction
187 185 182 180 181 182 184 185 185 184 183 181 181 183 186 189 188 189 189 191 193 194 195 194 193 192 189 184 181 182 184 186 186 185 185 185 185 185 186 186 185 184 182 180 174 172 171 170 168 168 170 173 174 176 177 178 181 184 185 184 187 190 193 197 201 202 201 200 198
185 183 179 176 176 177 179 179 179 182 183 182 181 184 188 191 189 188 188 189 192 194 194 193 191 189 186 181 180 181 183 184 184 183 184 186 185 185 185 186 186 186 184 182 176 173 172 171 170 169 170 174 176 177 179 182 182 185 189 191 193 194 195 198 201 202 202 202 198
181 180 178 177 177 178 178 177 179 183 185 185 183 185 190 193 191 189 188 189 191 193 193 191 189 188 186 183 182 183 184 185 184 183 183 185 185 184 184 185 187 187 186 185 180 176 174 172 171 170 170 173 175 177 180 185 185 186 189 192 193 195 197 201 200 200 200 202 200
179 178 178 180 181 182 182 180 181 184 187 187 184 186 191 195 192 189 187 186 189 191 191 188 187 188 189 188 188 187 186 185 184 184 184 185 184 184 184 183 185 186 187 187 183 178 173 171 171 170 170 171 174 178 182 185 186 187 189 191 192 194 197 201 199 198 198 199 200
178 178 179 181 183 184 184 183 182 183 186 187 185 187 192 196 193 188 184 182 186 188 189 188 187 188 190 192 192 190 188 185 184 184 184 185 185 184 183 182 182 183 185 186 183 177 171 170 170 170 170 170 176 182 185 185 186 188 190 191 194 195 195 196 198 199 198 197 196
178 178 180 183 185 186 186 184 183 184 185 187 185 186 190 192 187 184 180 179 183 188 190 191 191 190 190 192 194 193 191 186 185 184 184 184 184 184 182 181 181 181 181 182 180 176 171 169 168 168 169 171 181 187 189 187 188 189 191 194 197 197 195 193 195 196 197 196 193
178 178 181 184 185 186 186 183 184 184 185 186 186 188 190 190 185 182 180 176 180 185 190 191 193 192 190 191 195 195 192 187 186 185 185 184 184 184 183 182 181 180 179 179 177 175 173 170 168 166 167 172 183 189 191 190 190 192 194 197 199 198 196 194 192 193 195 194 193
180 181 182 184 184 185 184 182 182 183 183 185 188 190 190 189 185 181 179 177 182 185 188 191 193 191 189 189 193 195 195 191 189 187 185 184 185 185 185 183 182 181 179 177 177 176 175 173 170 169 171 177 183 189 191 192 193 195 197 199 199 200 199 199 194 193 193 193 193
182 183 184 183 183 183 182 182 183 184 185 186 189 190 190 188 184 181 179 181 187 188 188 190 191 189 188 189 192 194 196 194 191 188 186 185 185 185 185 183 182 181 179 178 178 178 178 178 175 175 177 183 186 189 191 193 196 198 200 200 200 201 201 203 199 195 193 193 195
180 180 181 181 181 181 182 182 185 187 188 189 190 190 188 186 184 182 181 183 188 189 188 189 187 187 188 190 190 192 193 193 192 190 189 187 186 185 185 184 183 181 180 180 179 180 181 182 181 182 184 188 190 192 193 195 199 200 200 201 201 201 201 202 199 196 193 194 196
177 177 177 178 179 180 181 182 185 187 189 191 190 188 186 184 184 182 181 181 186 189 189 187 185 185 186 188 188 189 189 189 189 189 189 189 187 187 186 186 184 182 181 181 180 181 184 186 187 189 191 193 194 195 197 197 199 200 200 200 201 201 200 198 196 193 192 193 196
177 175 175 176 177 178 179 182 183 187 190 192 190 188 185 185 185 183 181 182 187 189 188 185 183 183 184 185 186 186 186 187 186 186 187 187 186 186 186 186 185 183 182 181 180 182 185 188 190 192 193 194 195 197 199 199 199 199 199 200 201 201 200 197 194 192 192 192 195
176 174 174 174 174 175 177 180 182 187 191 192 189 186 183 183 183 183 183 186 188 187 185 182 182 182 183 185 184 184 185 185 184 184 184 184 183 184 185 186 185 184 183 182 181 183 186 189 191 193 194 194 196 198 199 200 200 201 200 200 200 200 199 197 194 192 192 191 194
177 174 173 171 172 174 176 180 183 187 191 191 188 183 180 179 182 185 187 188 187 184 182 180 181 183 185 185 184 184 184 183 182 180 179 179 180 181 183 186 187 186 185 184 184 186 188 191 192 194 194 194 196 196 198 199 201 202 203 202 201 199 198 196 194 193 193 193 195
177 175 172 170 171 174 178 181 183 186 188 189 185 180 177 178 183 187 189 188 185 182 180 180 183 186 187 186 185 184 183 181 179 177 176 176 177 180 183 186 188 188 188 188 188 189 191 192 194 194 195 195 195 195 195 197 200 203 204 204 202 199 196 194 193 193 195 195 196
177 174 171 169 172 176 180 183 183 185 186 186 182 178 177 181 184 187 188 186 183 181 181 182 186 187 187 186 185 183 182 181 179 177 176 176 178 181 183 186 188 190 190 191 192 193 194 194 195 195 195 195 194 194 194 195 198 202 204 205 203 200 197 193 192 193 195 197 196
176 173 171 171 174 178 181 183 182 182 182 181 179 179 181 184 184 184 184 182 180 181 183 184 185 185 184 184 183 182 181 180 179 179 179 180 181 184 185 187 188 189 191 192 193 194 194 195 195 195 195 195 194 194 194 195 197 200 203 205 204 201 198 194 193 193 194 196 197
176 174 173 173 176 179 181 182 180 178 178 177 179 182 185 186 182 180 180 180 180 181 182 183 183 183 182 182 182 182 181 181 181 182 183 184 185 187 187 188 188 189 190 192 193 194 194 194 194 195 195 196 196 196 197 197 198 200 202 203 203 201 199 195 193 193 193 195 197
176 175 174 175 177 178 179 179 177 176 175 176 181 186 188 186 182 179 178 179 180 181 182 180 181 181 181 182 182 182 182 183 183 184 186 187 188 189 189 189 189 189 190 192 193 194 194 194 195 195 196 197 198 199 200 201 201 201 201 201 200 199 197 195 194 193 193 194 196
176 175 175 176 177 177 177 177 175 174 175 178 185 189 189 186 182 180 179 179 181 183 183 181 181 181 181 182 182 182 184 185 186 187 188 189 190 190 191 191 190 190 192 194 194 195 195 195 195 196 197 197 199 201 203 205 205 203 201 200 197 195 193 192 193 194 195 195 196
175 174 174 174 175 175 175 175 174 175 177 181 186 189 188 185 182 180 179 178 180 183 186 186 184 183 182 182 183 183 184 186 188 189 190 191 191 192 192 192 191 191 193 197 197 196 195 193 193 193 194 195 199 203 206 208 207 205 202 199 195 191 189 189 192 194 196 196 196
172 171 171 172 173 173 174 174 175 178 182 184 186 186 185 183 181 179 177 176 179 184 188 190 188 185 183 183 183 184 184 186 190 192 193 192 193 194 194 193 193 194 195 198 198 198 196 194 192 190 189 191 195 200 204 206 206 204 202 200 196 191 188 188 192 195 197 198 197
170 169 169 170 172 173 175 177 180 183 186 187 185 184 183 181 179 177 175 176 180 184 188 189 188 186 184 183 184 184 185 188 192 194 195 194 195 195 195 195 196 196 197 197 196 196 196 194 192 190 189 188 190 190 192 193 195 197 199 200 198 195 192 191 193 196 198 199 199
170 169 170 171 174 176 178 181 183 185 186 186 184 182 180 177 176 175 175 176 180 183 186 187 187 186 186 185 185 186 187 189 192 194 195 195 195 194 195 195 196 196 196 194 191 189 188 189 190 189 188 187 185 183 181 180 184 189 194 198 199 197 196 194 195 197 198 199 199
171 172 172 175 176 178 181 185 186 185 183 182 181 179 176 173 174 174 175 178 180 183 185 185 185 185 186 186 187 188 189 190 192 192 193 193 193 192 191 192 194 195 193 189 182 179 178 179 183 185 185 183 181 179 178 178 180 183 187 191 194 195 195 194 194 195 196 198 198
170 172 174 177 178 180 182 185 184 182 178 176 175 174 173 172 173 174 176 179 182 183 184 185 183 182 183 184 186 188 189 190 190 189 189 189 189 189 188 188 188 189 187 183 176 175 174 175 177 179 181 181 179 179 179 181 181 181 181 182 185 187 189 189 190 192 193 195 195
167 169 171 173 174 176 179 180 177 174 171 170 170 171 172 173 174 175 177 180 182 183 184 185 178 174 176 183 185 187 187 187 186 186 186 186 187 188 187 187 186 185 182 175 173 174 175 175 176 177 180 183 182 182 182 184 184 183 181 179 180 181 182 183 184 186 187 189 191
166 166 166 166 167 169 170 170 169 167 166 167 169 172 174 175 175 176 178 180 180 180 181 181 173 169 174 184 185 186 185 184 184 185 186 187 188 188 189 190 189 185 177 169 171 174 176 177 178 179 182 185 187 187 186 186 185 185 184 181 180 180 181 181 181 181 182 183 185
168 166 164 162 163 164 164 165 165 166 168 170 173 175 175 175 175 176 177 178 177 177 177 176 169 170 177 185 185 185 184 184 185 185 187 189 191 191 191 192 191 183 171 165 170 174 177 180 180 182 184 187 191 191 191 190 188 187 186 183 182 182 182 181 181 182 183 183 185
170 169 167 165 166 167 168 169 170 171 172 174 176 176 175 173 174 174 175 176 175 175 174 171 168 174 182 187 187 187 187 187 186 187 189 192 194 193 192 193 192 182 169 164 170 174 178 181 183 185 186 189 193 197 198 198 197 197 197 198 198 197 194 190 187 187 188 188 189
171 172 172 171 172 175 177 177 175 175 175 177 178 177 175 172 171 171 171 172 171 170 168 167 170 177 185 189 189 190 190 188 187 188 190 191 192 192 191 193 189 177 165 167 171 175 179 183 185 187 188 188 193 195 194 184 155 97 61 45 37 35 39 55 50 45 78 192 192
172 173 174 174 177 180 182 181 178 178 178 179 179 177 173 169 168 168 167 167 166 165 166 170 175 181 186 190 191 191 190 188 188 189 190 190 190 188 186 183 172 161 161 171 174 178 180 182 180 173 161 136 111 89 83 76 72 68 63 57 50 45 42 42 37 32 27 21 6
174 174 175 175 178 181 183 183 181 180 179 179 176 173 168 164 164 164 165 165 165 167 171 176 181 184 187 189 191 191 190 189 188 187 187 187 186 179 165 129 98 80 142 181 179 174 166 149 124 104 91 81 78 76 75 77 76 72 67 62 57 53 51 50 45 39 33 29 19
175 176 177 178 180 181 181 182 181 180 178 175 170 166 162 161 163 166 167 167 168 172 176 181 184 186 187 188 189 188 188 187 188 188 187 186 179 159 121 81 54 25 16 159 151 133 115 103 98 94 91 87 86 84 82 80 77 74 70 67 61 56 52 49 45 40 36 31 29
173 175 177 179 179 178 177 176 176 175 172 167 163 160 160 162 167 169 169 166 169 174 179 183 181 175 163 133 102 93 113 149 182 185 185 181 157 121 90 72 53 39 49 98 109 109 106 105 102 99 94 89 87 85 83 81 78 75 71 68 61 56 52 49 45 41 37 33 36
171 172 172 171 171 170 168 167 167 165 164 161 158 159 161 165 169 169 165 159 167 171 170 158 120 90 76 64 50 40 33 31 38 43 52 73 93 93 86 74 56 50 65 102 109 111 111 111 107 102 98 94 92 90 87 84 81 77 73 70 65 60 56 53 49 45 40 36 39
171 168 163 159 159 159 159 158 157 157 157 157 158 160 164 166 166 163 159 158 161 147 119 91 79 74 70 69 62 53 46 44 45 45 44 45 58 71 76 70 57 54 73 108 116 117 116 114 110 107 103 101 100 97 93 89 85 80 76 73 68 64 60 57 53 49 45 42 42
172 168 162 155 152 153 154 155 154 154 155 156 158 161 164 164 162 158 154 150 131 108 91 83 82 80 78 74 68 59 52 48 49 50 50 46 45 50 58 62 56 55 73 108 118 119 118 115 112 109 108 108 107 104 99 94 90 85 80 76 72 66 62 60 56 53 50 47 47
174 172 169 161 155 153 155 157 156 156 155 155 158 161 162 161 150 135 115 97 95 93 91 88 85 82 80 77 72 64 56 50 49 49 49 46 41 42 47 56 55 55 62 87 108 113 113 113 111 110 109 109 109 107 104 99 94 89 85 81 76 71 66 63 60 57 54 52 52
174 174 173 169 162 159 160 161 160 158 157 157 158 157 149 132 109 94 87 84 86 88 89 87 86 84 81 78 75 69 62 56 52 50 49 48 44 43 45 53 55 56 56 60 75 88 97 103 106 107 108 109 109 109 107 104 98 93 88 83 81 76 71 66 64 61 59 56 54
172 172 172 172 168 165 164 165 163 162 160 156 147 131 110 95 89 88 88 90 90 89 89 87 85 82 80 78 76 72 67 61 56 52 50 50 47 45 46 49 53 54 54 53 55 61 70 80 90 97 102 107 109 109 108 106 101 96 91 87 85 82 78 73 68 64 61 59 58